Location: Asheville, NC
(35.6000°N, 82.5500°W)
Time: 09:26:04
(UTC-05:00)

Envisat - Pass Details

Date: 07 October 2017
Orbit: 764 x 766 km, 98.2° (Epoch: 18 December)

Event Time Altitude Azimuth Distance (km) Brightness Sun altitude
Exits shadow 21:18:26 47° 4° (N) 1,012 3.6 -27.8°
Drops below altitude 10° 21:22:03 10° 351° (N) 2,306 5.7 -28.5°
Sets 21:24:22 0° 350° (N) 3,237 6.5 -29.0°
